Location: Banios
(43.0451°N, 0.2335°E)
Time: 13:01:59
(UTC+00:00)

COSMOS 2428 - Pass Details

Date: 25 January 2021
Orbit: 848 x 855 km, 70.9° (Epoch: 26 February)

Event Time Altitude Azimuth Distance (km) Brightness Sun altitude
Exits shadow 04:47:59 26° 357° (N) 1,604 4.1 -27.9°
Drops below altitude 10° 04:50:41 10° 14° (NNE) 2,482 5.3 -27.4°
Sets 04:53:16 0° 21° (NNE) 3,421 6.1 -26.9°
